Regional Weather Roundup
Issued by NWS Jackson, KY

Home | Current Version | Previous Version | Text Only | Print | Product List | Glossary Off
Versions: 1 2 3 4 5 6 7 8 9 10 11 12 13 14 15 16 17 18 19 20 21 22 23 24 25 26 27 28 29 30 31 32 33 34 35 36 37 38 39 40 41 42 43 44 45 46 47 48 49 50

000
ASUS43 KJKL 290210
RWRJKL

EAST KENTUCKY HOURLY WEATHER ROUNDUP
NATIONAL WEATHER SERVICE JACKSON KY
1000 PM EDT FRI AUG 28 2015

NOTE: "FAIR" INDICATES FEW OR NO CLOUDS BELOW 12,000 FEET WITH
NO SIGNIFICANT WEATHER AND/OR OBSTRUCTIONS TO VISIBILITY.

* THESE REPORTS ARE NOT UNDER NWS QUALITY CONTROL AND MAY NOT
  REPORT WEATHER SUCH AS PRECIPITATION AND FOG.

KYZ079-080-083-085-087-088-110-112-115-119-120-290300
...EASTERN KENTUCKY...

CITY           SKY/WX    TMP DP  RH WIND       PRES   REMARKS
JACKSON        CLEAR     72  62  71 CALM      30.17R
LONDON         CLEAR     71  64  78 CALM      30.16R
SOMERSET*      PTCLDY    68  66  94 CALM      30.15R
MONTICELLO*    CLEAR     64  64 100 CALM      30.16R FOG
MIDDLESBORO*   CLEAR     68  63  83 CALM      30.17R
HAZARD APT*    CLEAR     68  68 100 CALM      30.17R
BLACK MTN*       N/A     63  59  88 CALM        N/A
PIKEVILLE APT* CLEAR     72  61  68 NE5       30.19R
BIG SANDY*     CLEAR     68  65  88 CALM      30.17R
MOREHEAD APT*  PTCLDY    72  59  64 CALM      30.17R
$$

KYZ035-036-041-042-044-050-067-078-099-290300
...CENTRAL KENTUCKY...

CITY           SKY/WX    TMP DP  RH WIND       PRES   REMARKS
MT STERLING*   CLEAR     72  63  73 SE3       30.16R
FLEMING/MASON* CLEAR     68  61  77 E5        30.16R
DANVILLE*      PTCLDY    68  64  88 CALM      30.15R
RICHMOND*      CLEAR     72  63  73 SE3       30.13R
LEXINGTON      CLEAR     74  60  61 E7        30.14R
FRANKFORT      CLEAR     69  62  78 CALM      30.12R
$$

KYZ091>093-OHZ055-061-077-WVZ005-015-034-035-042-290300
...SOUTHERN OHIO/WEST VIRGINIA...

CITY           SKY/WX    TMP DP  RH WIND       PRES   REMARKS
COVINGTON      MOCLDY    69  58  67 SE5       30.13R
COLUMBUS       MOCLDY    67  57  70 CALM      30.14R
DAYTON         CLOUDY    66  58  75 E3        30.15R
WILMINGTON     PTCLDY    65  57  75 E3        30.14R
HUNTINGTON     CLEAR     69  61  75 CALM      30.15R
CHARLESTON     CLEAR     67  63  87 CALM      30.17R
PINEVILLE*     CLEAR     64  64 100 MISG      30.25R
BECKLEY        CLEAR     66  59  78 CALM      30.24R
BLUEFIELD      PTCLDY    71  57  61 S5        30.27R
$$

VAZ002-007-008-TNZ017-027-036-066-071-290300
...SOUTHWEST VIRGINIA/EAST TENNESSEE...

CITY           SKY/WX    TMP DP  RH WIND       PRES   REMARKS
WISE*          CLEAR     70  57  64 CALM      30.26R
JONESVILLE*    CLEAR     66  64  94 CALM      30.20R
ABINGDON*      CLEAR     68  61  77 CALM      30.23R
BRISTOL        PTCLDY    68  62  81 N3        30.19R
KNOXVILLE      MOCLDY    78  62  57 SE5       30.14R
OAK RIDGE      PTCLDY    73  66  78 CALM      30.15R
CROSSVILLE     PTCLDY    70  63  78 CALM      30.19R
NASHVILLE      PTCLDY    77  63  61 S5        30.09R
$$

...KEY TO REMARKS...
VSB - VISIBILITY IN MILES
WCI - WIND CHILL INDEX
HX  - HEAT INDEX

$$


USA.gov is the U.S. government's official web portal to all federal, state and local government web resources and services.